User: anonymous   Login
Location: Caltech
(34.1382°N, 118.1253°W)
Time: 08:09:15
(UTC-07:00)
Language:

SO-67 - Orbit

View from above orbital plane
View from above orbital plane
View from above satellite
View from above satellite

Ground track
Ground track

The orbit data is extracted from the following two-line orbital elements,

1 35870U 09049F   15215.06905332  .00007482  00000-0  17294-3 0  9994
2 35870 097.1346 230.4131 0003161 073.1183 016.2361 15.42776803327344
Epoch (UTC): 03 August 2015 01:39:26
Eccentricity: 0.0003161
inclination: 97.1346°
perigee height: 436 km
apogee height: 440 km
right ascension of ascending node: 230.4131°
argument of perigee: 73.1183°
revolutions per day: 15.42776803
mean anomaly at epoch: 16.2361°
orbit number at epoch: 32734

The dashed part of the orbit path shows where the satellite is in the earth's shadow,  

DLR